Regional Weather Roundup
Issued by NWS

Home | Current Version | Previous Version | Text Only | Print | Product List | Glossary Off
Versions: 1 2 3 4 5 6 7 8 9 10 11 12 13 14 15 16 17 18 19 20 21 22 23 24 25 26 27 28 29 30 31 32 33 34 35 36 37 38 39 40 41 42 43 44 45 46 47 48 49 50

015
ASUS43 KLSX 181357
RWRMO

WEATHER SUMMARY FOR MISSOURI
NATIONAL WEATHER SERVICE SPRINGFIELD MO
800 AM CST MON DEC 18 2017

NOTE: "FAIR" INDICATES FEW OR NO CLOUDS BELOW 12,000 FEET WITH NO
       SIGNIFICANT WEATHER AND/OR OBSTRUCTIONS TO VISIBILITY.
       CURRENT SKY AND/OR WEATHER CONDITIONS ARE NOT AVAILABLE FOR
       CHILLICOTHE AND FARMINGTON.

MOZ001>031-035>038-043-044-053-054-181500-
...NORTHERN AND WESTERN MISSOURI...

CITY           SKY/WX    TMP DP  RH WIND       PRES   REMARKS
KANSAS CTY INT FOG       35  35 100 SW5       30.05R VSB 1/2
LEE`S SUMMIT   CLOUDY    43  40  89 SW17      30.06S
ST JOSEPH      FOG       35  35 100 S8        30.04S VSB 1/4 WCI  29
CHILLICOTHE      N/A     38  36  92 SW6       30.05R

$$
MOZ066>068-077>081-088>096-101>105-181500-
...SOUTHWEST MISSOURI...

CITY           SKY/WX    TMP DP  RH WIND       PRES   REMARKS
SPRINGFIELD    CLOUDY    44  42  93 SW5       30.13R
JOPLIN         CLOUDY    44  43  96 SW13      30.16R FOG
BRANSON        CLOUDY    45  39  81 W8        30.16R

$$
MOZ032>034-039>042-045>050-055>058-069>072-181500-
...CENTRAL MISSOURI...

CITY           SKY/WX    TMP DP  RH WIND       PRES   REMARKS
COLUMBIA       CLOUDY    45  43  93 S10       30.07S
JEFFERSON CITY CLOUDY    46  42  86 SW10      30.09R
ROLLA          CLOUDY    44  41  89 SW12      30.10R
SEDALIA        CLOUDY    45  45 100 SW10      30.09R
WARRENSBURG    CLOUDY    43  41  93 SW9       30.07S

$$
MOZ051-052-059>065-181500-
...EAST CENTRAL MISSOURI...

CITY           SKY/WX    TMP DP  RH WIND       PRES   REMARKS
ST LOUIS INTL  CLOUDY    47  43  86 W9        30.09R
ST CHARLES     CLOUDY    46  43  87 W10       30.07S

$$
MOZ072>076-082>087-097>100-106>115-181500-
...SOUTH CENTRAL AND SOUTHEAST MISSOURI...

CITY           SKY/WX    TMP DP  RH WIND       PRES   REMARKS
CAPE GIRARDEAU CLOUDY    45  43  93 SW8       30.13R
FARMINGTON     CLOUDY    45  45 100 S6        30.11R FOG
POPLAR BLUFF   CLOUDY    45  44  97 SW8       30.15R FOG
WEST PLAINS    CLOUDY    45  41  86 W10       30.13R

$$



USA.gov is the U.S. government's official web portal to all federal, state and local government web resources and services.